DW8366 Lake Hamana JP current weather conditions

sailwx.info

Air temperature 14.4° C
Dewpoint 13.8° C

Last reported at 2018-Oct-17 19:00 UTC.
Time now 2018-Oct-17 20:08 UTC

Location: N 34°43' E 137°32'.
View on Google Maps.

See reports from other nearby stations

  
Tides and Currents Weather Stations Pressure Air Temp Water Temp Dewpoint Dewpoint Depression Visibility Wind Speed Wind Dir Waves Ship Positions
date/time (UTC)wind fromknots sea level pressurealtimeterstation pressurevisibilityair tempwater tempwave heightnotes
2018-Oct-17 19:00 14.4
2018-Oct-17 18:50 14.4
2018-Oct-17 18:45 225 14.4
2018-Oct-17 18:35 225 14.4
2018-Oct-17 18:15 14.4
2018-Oct-17 18:10 223 14.4
2018-Oct-17 17:50 14.4
2018-Oct-17 17:30 15.0
2018-Oct-17 17:25 15.0
2018-Oct-17 17:20 15.0
2018-Oct-17 17:15 15.0
2018-Oct-17 17:00 15.0
2018-Oct-17 16:55 15.0
2018-Oct-17 16:50 15.0
2018-Oct-17 16:35 261 15.0
2018-Oct-17 16:30 15.0
2018-Oct-17 16:20 15.0
2018-Oct-17 16:15 225 15.0
2018-Oct-17 16:10 225 15.0
2018-Oct-17 16:05 15.0
2018-Oct-17 16:00 15.0
2018-Oct-17 15:50 225 15.6
2018-Oct-17 15:45 225 15.6
2018-Oct-17 15:40 225 15.6
2018-Oct-17 15:35 225 15.6
2018-Oct-17 15:20 270 15.6
2018-Oct-17 15:15 15.6
2018-Oct-17 14:55 15.6
2018-Oct-17 14:50 15.6
2018-Oct-17 14:40 15.6
2018-Oct-17 14:35 225 15.6
2018-Oct-17 14:25 225 16.1
2018-Oct-17 14:15 16.1
2018-Oct-17 14:00 16.1
2018-Oct-17 13:50 16.1
2018-Oct-17 13:35 236 16.7
2018-Oct-17 13:30 232 16.7
2018-Oct-17 13:25 225 16.7
2018-Oct-17 13:20 16.7
2018-Oct-17 13:15 16.7
2018-Oct-17 13:10 16.7
2018-Oct-17 13:00 16.7
2018-Oct-17 12:55 16.7
2018-Oct-17 12:50 17.2
2018-Oct-17 12:45 270 17.2
2018-Oct-17 12:35 270 17.2
2018-Oct-17 12:30 17.2
2018-Oct-17 12:15 270 17.8
2018-Oct-17 12:10 270 17.8
2018-Oct-17 12:00 198 17.8
2018-Oct-17 11:55 259 18.3
2018-Oct-17 11:50 270 18.3
2018-Oct-17 11:45 270 18.3
2018-Oct-17 11:30 246 18.3
2018-Oct-17 11:25 225 0 gusting 1 18.3
2018-Oct-17 11:20 225 18.9
2018-Oct-17 11:10 225 18.9
2018-Oct-17 11:05 225 18.9
2018-Oct-17 10:50 225 19.4
2018-Oct-17 10:45 225 19.4
2018-Oct-17 10:40 225 19.4
2018-Oct-17 10:30 225 19.4
2018-Oct-17 10:25 225 20.0
2018-Oct-17 10:20 225 20.0
2018-Oct-17 10:15 082 20.0
2018-Oct-17 10:00 030 20.0
2018-Oct-17 09:50 041 0 gusting 2 20.6
2018-Oct-17 09:45 041 20.6
2018-Oct-17 09:40 047 20.6
2018-Oct-17 09:25 020 0 gusting 2 20.6
2018-Oct-17 09:10 213 20.6
2018-Oct-17 09:00 222 21.1
2018-Oct-17 08:50 252 0 gusting 1 21.1
2018-Oct-17 08:45 262 21.1
2018-Oct-17 08:35 247 0 gusting 2 21.7
2018-Oct-17 08:20 256 1 gusting 2 21.7
2018-Oct-17 08:15 266 0 gusting 3 21.7
2018-Oct-17 08:10 268 1 gusting 3 22.2
2018-Oct-17 07:50 244 2 gusting 3 22.8
2018-Oct-17 07:40 255 1 gusting 3 23.3
2018-Oct-17 07:35 267 1 gusting 3 23.3
2018-Oct-17 07:25 270 1 gusting 5 23.3
2018-Oct-17 07:20 273 0 gusting 6 23.9
2018-Oct-17 07:15 270 2 gusting 6 24.4
2018-Oct-17 07:00 267 1 gusting 4 25.6
2018-Oct-17 06:55 257 2 gusting 4 26.1
2018-Oct-17 06:45 255 1 gusting 3 27.2
2018-Oct-17 06:30 260 1 gusting 6 27.8
2018-Oct-17 06:25 256 1 gusting 6 27.8
2018-Oct-17 06:15 247 0 gusting 5 27.8
2018-Oct-17 06:10 252 0 gusting 5 27.2
2018-Oct-17 06:05 243 1 gusting 5 26.1
2018-Oct-17 05:55 257 0 gusting 3 25.6
2018-Oct-17 05:45 203 1 gusting 5 25.6
2018-Oct-17 05:20 273 5 gusting 6 26.7
2018-Oct-17 05:15 265 1 gusting 5 27.2
2018-Oct-17 05:10 277 0 gusting 5 27.8
2018-Oct-17 05:05 273 0 gusting 5 27.8
2018-Oct-17 05:00 244 1 gusting 5 28.3
2018-Oct-17 04:55 251 1 gusting 5 28.3
2018-Oct-17 04:45 251 0 gusting 6 27.8
2018-Oct-17 04:40 291 2 gusting 6 27.8
2018-Oct-17 04:30 253 3 gusting 6 28.3
2018-Oct-17 04:25 270 1 gusting 6 28.3
2018-Oct-17 04:05 305 1 gusting 4 28.3
2018-Oct-17 04:00 275 27.8
2018-Oct-17 03:55 260 0 gusting 6 27.2
2018-Oct-17 03:50 245 1 gusting 6 27.2
2018-Oct-17 03:45 258 2 gusting 7 27.8
2018-Oct-17 03:30 281 1 gusting 6 29.4
2018-Oct-17 03:25 253 1 gusting 5 28.9
2018-Oct-17 03:20 252 2 gusting 5 29.4
2018-Oct-17 03:15 267 1 gusting 6 30.0
2018-Oct-17 03:10 274 1 gusting 6 31.1
2018-Oct-17 03:05 285 1 gusting 5 31.1
2018-Oct-17 03:00 215 3 gusting 5 30.6
2018-Oct-17 02:55 249 1 gusting 3 30.0
2018-Oct-17 02:45 270 1 gusting 6 29.4
2018-Oct-17 02:30 247 1 gusting 4 30.0
2018-Oct-17 02:20 245 1 gusting 3 29.4
2018-Oct-17 01:55 221 1 gusting 5 28.9
2018-Oct-17 01:50 244 2 gusting 6 28.9
2018-Oct-17 01:40 079 1 gusting 4 28.3
2018-Oct-17 01:35 270 1 gusting 3 27.8
2018-Oct-17 01:10 356 2 gusting 6 27.8
2018-Oct-17 01:05 006 0 gusting 6 27.2
2018-Oct-17 00:45 276 1 gusting 3 26.1
2018-Oct-17 00:40 230 1 gusting 3 25.6
2018-Oct-17 00:25 310 0 gusting 3 25.0
2018-Oct-17 00:20 276 0 gusting 3 24.4
2018-Oct-17 00:10 272 1 gusting 4 23.9
2018-Oct-17 00:00 223 1 gusting 4 23.9
2018-Oct-16 23:55 185 1 gusting 4 23.3
2018-Oct-16 23:50 154 1 gusting 3 22.8
2018-Oct-16 23:40 256 0 gusting 4 21.7
2018-Oct-16 23:25 280 3 gusting 4 20.6
2018-Oct-16 23:20 286 1 gusting 4 20.6
2018-Oct-16 23:15 271 1 gusting 3 20.6
2018-Oct-16 23:00 263 0 gusting 2 18.9
2018-Oct-16 22:55 261 0 gusting 2 18.3
2018-Oct-16 22:50 264 1 gusting 2 17.8
2018-Oct-16 22:45 270 0 gusting 2 17.8
2018-Oct-16 22:25 270 16.7
2018-Oct-16 22:20 270 1 gusting 2 16.7
2018-Oct-16 21:55 260 0 gusting 1 15.0
2018-Oct-16 21:50 261 0 gusting 1 15.0
2018-Oct-16 21:45 263 15.0
2018-Oct-16 21:30 261 15.0
2018-Oct-16 21:25 261 15.0
2018-Oct-16 21:20 257 15.0
2018-Oct-16 21:15 248 15.0
2018-Oct-16 21:10 242 0 gusting 1 15.0
2018-Oct-16 20:50 252 15.0
2018-Oct-16 20:45 266 15.6
2018-Oct-16 20:40 266 0 gusting 1 15.6
2018-Oct-16 20:35 260 0 gusting 1 15.6
2018-Oct-16 20:30 225 15.6
2018-Oct-16 20:25 225 15.6
2018-Oct-16 20:20 225 15.6
2018-Oct-16 20:10 225 15.6
2018-Oct-16 20:00 210 15.6
2018-Oct-16 19:55 231 15.6
2018-Oct-16 19:40 15.6
2018-Oct-16 19:35 15.6
2018-Oct-16 19:30 15.6
2018-Oct-16 19:25 15.6
2018-Oct-16 19:15 272 15.6
2018-Oct-16 19:05 304 15.6
2018-Oct-16 18:55 256 15.6
2018-Oct-16 18:50 267 15.6
2018-Oct-16 18:40 260 15.6
2018-Oct-16 18:35 263 15.6
2018-Oct-16 18:30 280 15.6
2018-Oct-16 18:25 304 15.6
2018-Oct-16 18:15 314 15.6
2018-Oct-16 18:10 15.6
2018-Oct-16 18:05 15.6
2018-Oct-16 18:00 314 15.6
2018-Oct-16 17:55 276 15.6
2018-Oct-16 17:25 264 15.6
2018-Oct-16 17:20 263 15.6
2018-Oct-16 17:15 253 0 gusting 2 15.6
2018-Oct-16 17:10 249 15.6
2018-Oct-16 17:05 256 1 gusting 2 15.6
2018-Oct-16 17:00 260 0 gusting 1 15.6
2018-Oct-16 16:55 245 0 gusting 1 15.6
2018-Oct-16 16:30 270 15.6
2018-Oct-16 16:20 15.6
2018-Oct-16 16:15 15.6
2018-Oct-16 15:50 313 15.6
2018-Oct-16 15:45 270 15.6
2018-Oct-16 15:25 15.6
2018-Oct-16 15:20 15.6
2018-Oct-16 15:15 15.6
2018-Oct-16 15:10 270 15.6
2018-Oct-16 15:05 270 15.6
2018-Oct-16 15:00 270 15.6
2018-Oct-16 14:55 257 15.6
2018-Oct-16 14:50 208 15.6
2018-Oct-16 14:35 090 16.1
2018-Oct-16 14:25 046 16.1
2018-Oct-16 14:05 225 16.1
2018-Oct-16 13:50 243 16.1
2018-Oct-16 13:45 244 0 gusting 1 16.1
2018-Oct-16 13:40 250 16.1
2018-Oct-16 13:35 268 16.1
2018-Oct-16 13:25 16.1
2018-Oct-16 13:20 16.7
2018-Oct-16 13:10 225 16.7
2018-Oct-16 13:00 090 16.7
2018-Oct-16 12:55 203 16.7
2018-Oct-16 12:50 230 16.7
2018-Oct-16 12:40 258 16.7
2018-Oct-16 12:35 16.7
2018-Oct-16 12:05 225 16.7
2018-Oct-16 12:00 256 16.7
2018-Oct-16 11:55 265 16.7
2018-Oct-16 11:50 270 0 gusting 1 16.7
2018-Oct-16 11:45 270 16.7
2018-Oct-16 11:35 186 17.2
2018-Oct-16 11:30 181 17.2
2018-Oct-16 11:20 270 17.2
2018-Oct-16 11:10 17.2
2018-Oct-16 11:05 17.2
2018-Oct-16 11:00 195 17.2
2018-Oct-16 10:45 17.2
2018-Oct-16 10:30 17.2
2018-Oct-16 10:25 270 17.2
2018-Oct-16 10:20 267 17.8
2018-Oct-16 10:15 267 17.8
2018-Oct-16 10:05 261 17.8
2018-Oct-16 09:55 245 17.8
2018-Oct-16 09:30 18.3
2018-Oct-16 09:20 18.3
2018-Oct-16 09:15 18.3
2018-Oct-16 09:10 18.3
2018-Oct-16 09:05 18.3
2018-Oct-16 08:45 18.9
2018-Oct-16 08:40 18.9
2018-Oct-16 08:35 18.9
2018-Oct-16 08:30 181 18.9
2018-Oct-16 08:20 264 19.4
2018-Oct-16 08:10 193 19.4
2018-Oct-16 08:05 264 20.0
2018-Oct-16 07:55 225 20.0